Tracking 34717 objects as of 14-Jul-2026
HD Live streaming from Space Station
objects crossing your sky now

FREGAT R/B

Track FREGAT R/B now!


NORAD ID: 45609
Int'l Code: 2020-031B
Perigee: 1,072.3 km
Apogee: 39,164.5 km
Inclination: 63.5 °
Period: 715.1 minutes
Semi major axis: 26489 km
RCS: Unknown
Launch date: May 22, 2020
Source: Commonwealth of Independent States (former USSR) (CIS)
Launch site: PLESETSK MISSILE AND SPACE COMPLEX (PKMTR)

Note: This is a ROCKET BODY
Your satellite tracking list
Your tracking list is empty




NASA's NSSDC Master Catalog

Two Line Element Set (TLE):
1 45609U 20031B   26176.96155169  .00000180  00000-0  00000-0 0  9993
2 45609  63.4777  61.9777 7190072 258.3376  19.9529  2.01370024 44830
Source of the keplerian elements: AFSPC